Fort Lewis, WA
on Wednesday, January 9, 2013

Wednesday
Previous Day Next Day
Daily Summary
 ActualAverage (KOLM)Record (KOLM)
Temperature
Mean Temperature °F 39°F  
Max Temperature 50°F 45°F 57°F (2010)
Min Temperature 32°F 34°F 6°F (1974)
Degree Days
Heating Degree Days 24 26  
Month to date heating degree days 234  
Since 1 July heating degree days 2504  
Cooling Degree Days 0 0  
Month to date cooling degree days 0  
Year to date cooling degree days 0  
Moisture
Dew Point 41°F   
Average Humidity 94    
Maximum Humidity 100    
Minimum Humidity 86    
Precipitation
Precipitation 0.94 in 0.27 in 3.82 in (1990)
Month to date precipitation 2.31  
Year to date precipitation 2.31  
Wind
Wind Speed 13 mph   
Max Wind Speed 18 mph   
Max Gust Speed 28 mph   
Visibility 8 miles   
Events Rain   

Key: T is trace of precipitation, MM is missing value
Source: NWS Daily Summary
Time(PST)TemperatureDew PointHumidity Pressure Visibility Wind DirectionWind SpeedGust SpeedPrecipitationEvents Conditions
12:13 AM 50.0°F 48.2°F 94% 29.75 in 6.0 miles South 16.1 mph 23.0 mph N/A Rain Light Rain
12:21 AM 50.0°F 48.2°F 94% 29.75 in 9.0 miles SSW 11.5 mph 23.0 mph N/A   Overcast
12:28 AM 50.0°F 48.2°F 94% 29.75 in 9.0 miles SSW 12.7 mph 21.9 mph N/A Rain Light Rain
12:48 AM 50.0°F 48.2°F 94% 29.76 in 8.0 miles South 13.8 mph 20.7 mph N/A Rain Light Rain
12:53 AM 50.0°F 48.2°F 94% 29.76 in 6.0 miles SSW 12.7 mph 20.7 mph N/A Rain Light Rain
12:55 AM 50.0°F 48.2°F 94% 29.75 in 6.0 miles South 16.1 mph 20.7 mph N/A   Overcast
12:58 AM 49.3°F 47.7°F 94% 29.77 in 6.0 miles South 16.1 mph 20.7 mph 0.05 in   Overcast
12:59 AM 50.0°F 48.2°F 94% 29.76 in 5.0 miles South 12.7 mph 20.7 mph N/A   Overcast
1:02 AM 50.0°F 48.2°F 94% 29.76 in 5.0 miles South 15.0 mph 21.9 mph N/A Rain Light Rain
1:17 AM 50.0°F 48.2°F 94% 29.76 in 8.0 miles South 18.4 mph 26.5 mph N/A Rain Light Rain
1:46 AM 48.2°F 46.4°F 93% 29.74 in 6.0 miles South 15.0 mph 27.6 mph N/A   Overcast
1:49 AM 48.2°F 46.4°F 93% 29.74 in 7.0 miles South 15.0 mph 27.6 mph N/A Rain Light Rain
1:58 AM 48.6°F 46.9°F 94% 29.75 in 9.0 miles South 12.7 mph 23.0 mph 0.10 in Rain Light Rain
2:45 AM 48.2°F 46.4°F 93% 29.73 in 7.0 miles West 12.7 mph - N/A Rain Light Rain
2:50 AM 46.4°F 46.4°F 100% 29.72 in 6.0 miles West 13.8 mph - N/A Rain Light Rain
2:55 AM 46.4°F 44.6°F 93% 29.72 in 5.0 miles West 15.0 mph - N/A Rain Light Rain
2:58 AM 46.0°F 45.0°F 96% 29.73 in 5.0 miles West 13.8 mph - 0.08 in Rain Light Rain
3:03 AM 44.6°F 44.6°F 100% 29.72 in 8.0 miles West 18.4 mph 21.9 mph N/A Rain Light Rain
3:18 AM 44.6°F 42.8°F 93% 29.73 in 1.8 miles WSW 9.2 mph - N/A Rain Rain
3:23 AM 44.6°F 42.8°F 93% 29.73 in 2.0 miles WSW 10.4 mph - N/A Rain Rain
3:28 AM 44.6°F 42.8°F 93% 29.73 in 4.0 miles WSW 10.4 mph - N/A Rain Light Rain
3:38 AM 42.8°F 42.8°F 100% 29.73 in 10.0 miles WSW 12.7 mph 18.4 mph N/A Rain Light Rain
3:43 AM 42.8°F 41.0°F 93% 29.72 in 8.0 miles WSW 12.7 mph - N/A Rain Light Rain
3:53 AM 42.8°F 41.0°F 93% 29.72 in 7.0 miles WSW 15.0 mph - N/A Rain Light Rain
3:58 AM 42.6°F 40.8°F 93% 29.74 in 9.0 miles WSW 15.0 mph - 0.17 in Rain Light Rain
4:58 AM 41.2°F 40.1°F 96% 29.72 in 5.0 miles WSW 8.1 mph - 0.10 in Rain Light Rain
5:03 AM 41.0°F 39.2°F 93% 29.70 in 5.0 miles WSW 6.9 mph - N/A Rain Light Rain
5:08 AM 41.0°F 39.2°F 93% 29.70 in 5.0 miles WSW 5.8 mph - N/A Rain Light Rain
5:13 AM 41.0°F 39.2°F 93% 29.70 in 5.0 miles SW 4.6 mph - N/A Rain Light Rain
5:18 AM 41.0°F 39.2°F 93% 29.69 in 5.0 miles SW 5.8 mph - N/A Rain Light Rain
5:58 AM 40.5°F 39.4°F 96% 29.72 in 5.0 miles SW 8.1 mph - 0.14 in Rain Light Rain
6:58 AM 39.7°F 38.3°F 95% 29.74 in 10.0 miles SSE 9.2 mph - 0.14 in Rain Light Rain
7:58 AM 37.9°F 36.9°F 96% 29.76 in 10.0 miles SE 9.2 mph - 0.12 in Rain Light Rain
8:31 AM 37.4°F 37.4°F 100% 29.76 in 10.0 miles SSE 10.4 mph - N/A   Mostly Cloudy
8:46 AM 37.4°F 35.6°F 93% 29.76 in 10.0 miles SSE 10.4 mph - N/A   Mostly Cloudy
8:58 AM 36.9°F 36.3°F 98% 29.78 in 10.0 miles SSE 12.7 mph - 0.03 in   Overcast
9:18 AM 37.4°F 35.6°F 93% 29.76 in 10.0 miles SE 15.0 mph - N/A   Overcast
9:58 AM 37.6°F 37.2°F 99% 29.78 in 10.0 miles South 12.7 mph - 0.01 in   Scattered Clouds
10:43 AM 39.2°F 39.2°F 100% 29.78 in 10.0 miles SSE 9.2 mph - N/A   Mostly Cloudy
10:58 AM 39.4°F 38.8°F 98% 29.80 in 10.0 miles South 13.8 mph - N/A   Mostly Cloudy
11:08 AM 39.2°F 39.2°F 100% 29.78 in 10.0 miles South 11.5 mph 19.6 mph N/A   Overcast
11:13 AM 39.2°F 39.2°F 100% 29.78 in 10.0 miles South 12.7 mph 19.6 mph N/A   Mostly Cloudy
11:48 AM 39.2°F 39.2°F 100% 29.78 in 10.0 miles South 12.7 mph - N/A   Mostly Cloudy
11:58 AM 39.7°F 38.5°F 95% 29.80 in 10.0 miles South 11.5 mph - N/A   Mostly Cloudy
12:13 PM 39.2°F 37.4°F 93% 29.79 in 10.0 miles South 11.5 mph - N/A   Scattered Clouds
12:58 PM 39.7°F 37.6°F 92% 29.81 in 10.0 miles SSE 12.7 mph - N/A   Mostly Cloudy
1:58 PM 40.5°F 37.9°F 91% 29.83 in 10.0 miles South 10.4 mph - N/A   Mostly Cloudy
2:03 PM 41.0°F 37.4°F 87% 29.81 in 10.0 miles South 10.4 mph - N/A   Scattered Clouds
2:58 PM 40.1°F 36.3°F 86% 29.85 in 10.0 miles South 10.4 mph - N/A   Clear
3:58 PM 39.4°F 35.8°F 87% 29.88 in 10.0 miles South 10.4 mph - N/A   Partly Cloudy
4:53 PM 39.2°F 35.6°F 87% 29.88 in 10.0 miles SSE 9.2 mph - N/A   Mostly Cloudy
4:58 PM 38.3°F 36.0°F 91% 29.90 in 10.0 miles SSE 8.1 mph - N/A   Mostly Cloudy
5:33 PM 37.4°F 35.6°F 93% 29.88 in 10.0 miles SSE 11.5 mph - N/A   Scattered Clouds
5:58 PM 36.7°F 35.1°F 94% 29.91 in 10.0 miles SSE 11.5 mph - N/A   Clear
6:58 PM 35.8°F 33.8°F 92% 29.92 in 10.0 miles SSE 8.1 mph - N/A   Clear
7:58 PM 35.2°F 33.6°F 94% 29.93 in 10.0 miles South 9.2 mph - N/A   Clear
8:58 PM 34.2°F 32.5°F 94% 29.94 in 10.0 miles SSE 9.2 mph - N/A   Clear
9:58 PM 33.6°F 33.1°F 98% 29.95 in 10.0 miles South 10.4 mph - N/A   Clear
10:58 PM 32.5°F 31.8°F 97% 29.96 in 10.0 miles SE 8.1 mph - N/A   Partly Cloudy
11:58 PM 34.2°F 33.3°F 97% 29.95 in 10.0 miles South 9.2 mph - N/A   Clear
Moon Phase
Jan. 09 Jan. 11 Jan. 18 Jan. 26 Feb. 03
Sunrise:07:54 AM (PST) Moon Rise:05:40 AM (PST)1/9
Sunset:04:40 PM (PST) Moon Set:02:47 PM (PST)1/9

Copyright © 2014 The Weather Underground, Inc.